Date,TemperatureHighF,TemperatureAvgF,TemperatureLowF,DewpointHighF,DewpointAvgF,DewpointLowF,HumidityHigh,HumidityAvg,HumidityLow,PressureMaxIn,PressureMinIn,WindSpeedMaxMPH,WindSpeedAvgMPH,GustSpeedMaxMPH,PrecipitationSumIn
2013-1-1,44,41,36,44,41,36,100,100,100,30.14,29.91,8,2,10,0.00
2013-1-2,40,35,28,40,34,-10,100,99,15,30.17,30.11,6,1,6,0.00
2013-1-3,47,36,26,40,30,26,100,79,44,30.47,29.97,10,2,10,0.00
2013-1-4,50,43,36,32,29,25,78,58,40,30.53,30.35,4,1,4,0.00
2013-1-5,50,42,33,42,36,29,96,79,57,30.38,30.23,7,2,8,0.00
2013-1-6,54,40,30,33,25,-7,100,64,8,30.38,30.29,12,2,12,0.00
2013-1-7,56,41,27,33,26,16,71,55,38,30.35,30.11,6,1,6,0.00
2013-1-8,50,47,44,50,41,29,100,83,54,30.11,29.97,9,3,9,0.71
2013-1-9,56,53,49,56,53,49,100,100,100,30.15,30.00,22,6,22,1.49
2013-1-10,60,55,46,60,55,3,100,100,100,30.06,29.91,13,5,13,0.03
2013-1-11,68,56,45,67,54,45,100,93,67,30.00,29.82,13,6,15,0.00
2013-1-12,74,54,36,73,54,20,100,97,15,29.94,29.70,15,4,15,0.03
2013-1-13,41,35,29,34,26,19,92,70,49,30.29,29.94,12,6,12,0.00
2013-1-14,43,34,27,25,21,-13,74,60,15,30.35,30.20,13,6,13,0.00
2013-1-15,36,33,29,33,27,19,94,78,56,30.23,30.15,10,4,12,0.04
2013-1-16,44,34,25,25,21,18,82,61,39,30.29,30.17,6,1,6,0.06
2013-1-17,57,43,30,33,27,21,74,54,29,30.50,30.23,12,2,12,0.00
2013-1-18,57,43,30,37,30,24,87,63,37,30.53,30.29,11,2,12,0.00
2013-1-19,62,48,37,46,39,31,91,71,47,30.29,30.17,12,4,12,0.00
2013-1-20,64,48,35,52,41,34,100,78,45,30.23,30.11,9,1,11,0.00
2013-1-21,56,45,36,43,32,23,97,63,45,30.29,30.15,12,3,12,0.00
2013-1-22,62,48,36,44,36,21,86,63,48,30.32,30.20,8,2,8,0.00
2013-1-23,70,56,44,55,50,41,100,82,54,30.29,30.15,13,4,13,0.00
2013-1-24,72,60,51,64,57,51,100,90,64,30.20,30.06,10,3,12,0.00
2013-1-25,57,51,46,57,46,38,100,84,67,30.23,30.06,9,4,9,0.00
2013-1-26,53,48,45,50,47,39,100,94,70,30.23,30.11,8,2,8,0.00
2013-1-27,74,61,48,65,57,48,100,89,59,30.11,29.97,15,4,15,0.03
2013-1-28,76,70,63,68,64,60,100,82,65,30.06,29.88,14,7,16,0.00
2013-1-29,77,65,51,69,62,49,100,89,51,29.88,29.50,17,7,17,0.25
2013-1-30,52,45,36,49,28,18,92,53,29,30.15,29.70,10,4,10,0.00
2013-1-31,64,46,30,28,15,-13,69,39,4,30.35,30.11,13,4,13,0.00